Theta_e
304 304 305 305 305 305 306 306 306 306 307 307 309 310 311 312 313 310 307 309 305 301 303 305 309 313 318 320 316 317 313 312 315 311 308 308 305 308 307 308 307 305 303 303 303 300 297 314 315 306 312 314 312 312
304 304 304 305 304 305 306 306 306 306 306 307 308 309 311 312 312 311 305 308 309 302 303 307 311 313 312 322 315 316 316 313 318 312 312 310 308 309 308 304 311 304 309 308 306 308 313 317 316 320 315 310 310 311
303 304 304 305 304 305 306 305 305 305 305 305 307 309 310 312 312 311 307 308 307 303 301 302 307 316 315 311 319 314 320 320 320 321 316 314 310 313 308 308 309 310 312 310 308 312 313 310 312 312 312 312 314 314
302 303 304 304 304 305 305 305 305 304 304 304 306 308 310 312 311 310 306 308 306 303 297 302 313 315 326 323 317 320 323 326 324 323 320 317 313 315 312 310 310 314 313 311 309 311 309 311 312 313 314 315 314 314
302 303 303 304 304 304 304 304 304 303 304 305 306 308 310 311 310 309 308 308 308 302 297 300 307 311 314 316 318 319 323 324 323 324 320 318 317 315 313 312 310 314 313 309 310 313 312 310 311 314 314 314 315 313
302 303 303 304 304 304 304 304 304 303 304 305 306 308 310 310 308 306 302 308 308 306 300 300 312 315 321 322 320 321 322 323 322 322 318 316 316 316 310 309 312 317 317 318 313 316 314 313 315 316 313 311 310 308
303 303 303 303 303 303 303 304 304 303 304 305 306 308 309 309 306 303 302 306 308 308 304 303 307 319 321 322 321 321 324 324 323 319 316 314 314 313 310 308 312 316 317 317 320 314 311 313 310 310 308 307 305 305
303 303 303 302 303 303 303 303 303 304 304 305 306 308 309 309 307 303 309 307 308 306 305 300 303 313 318 319 317 322 319 322 320 318 315 314 311 311 307 311 314 316 317 314 315 316 314 311 309 307 307 305 301 299
303 303 302 302 302 303 303 302 303 304 305 306 308 309 307 304 302 305 311 309 310 305 300 300 302 308 320 320 321 321 322 315 320 316 313 314 309 307 310 310 313 316 314 310 311 310 309 307 304 303 302 300 296 294
303 302 302 302 302 302 302 302 303 305 306 308 306 302 299 304 309 310 307 303 302 302 302 299 310 309 317 317 318 318 319 314 309 312 313 309 308 308 308 309 312 312 312 311 307 304 304 302 299 297 295 295 292 292
301 301 301 302 301 301 301 302 303 305 307 304 301 300 305 307 308 306 305 303 299 296 299 301 304 304 313 307 312 316 313 312 305 310 308 305 305 305 308 306 308 309 307 306 304 303 304 302 296 294 292 291 291 291
301 301 301 301 300 301 301 301 303 304 304 302 302 304 303 303 306 304 304 309 302 299 307 305 307 306 308 314 311 313 311 310 304 313 307 301 304 305 304 303 302 302 301 300 299 297 297 298 296 294 292 292 290 291
301 301 302 302 301 301 301 301 303 305 307 305 300 298 299 303 294 297 297 303 306 312 314 313 313 314 312 313 312 311 308 306 313 306 304 303 303 303 303 303 300 298 294 292 291 291 291 291 294 296 293 291 290 289
302 302 302 301 302 300 300 302 303 305 304 297 295 286 296 297 301 304 305 308 315 315 315 315 315 313 313 310 311 306 308 310 303 300 300 301 301 299 298 299 299 294 292 290 290 290 290 290 290 292 293 290 288 288
301 302 302 301 301 302 301 302 304 306 300 294 296 289 298 305 308 310 312 312 315 317 316 316 315 316 313 310 311 308 304 301 301 299 298 297 298 296 296 296 296 295 293 291 290 289 288 289 289 289 289 289 289 289
300 301 300 301 302 302 303 303 305 304 300 296 296 296 304 305 307 310 311 311 317 317 317 317 312 308 306 308 305 302 302 299 297 298 298 298 296 296 295 296 296 295 293 292 291 290 290 288 288 289 289 289 289 288
300 296 301 302 302 303 303 303 302 298 296 297 298 303 302 304 305 309 308 310 312 313 312 313 306 303 308 303 300 300 300 298 298 298 299 298 295 295 295 295 295 294 293 291 290 290 289 290 290 289 287 289 289 289
296 299 301 303 303 301 304 303 299 297 294 298 297 304 305 303 302 306 305 307 308 312 311 306 308 301 298 297 296 296 296 297 297 296 296 297 297 296 296 294 293 293 290 290 290 289 289 289 288 288 288 288 288 288
298 299 303 304 304 302 299 300 300 295 299 302 307 309 306 303 304 303 304 305 308 309 307 304 298 296 296 297 296 294 295 295 293 293 294 296 297 295 294 293 292 292 290 289 289 289 289 289 288 288 288 287 287 287
300 302 304 304 305 301 298 299 303 299 300 308 312 306 305 303 304 303 300 301 303 301 295 292 291 293 297 298 299 297 297 298 296 294 294 295 297 294 290 289 289 289 289 289 288 286 288 287 288 288 288 287 287 286
299 303 305 304 302 302 301 304 300 302 308 308 308 307 302 302 298 296 296 298 296 292 290 290 291 294 296 296 297 297 295 296 295 293 291 288 288 288 287 287 288 287 287 287 286 286 286 286 287 288 288 287 288 288
304 306 303 304 301 301 302 306 307 312 310 309 308 307 301 297 296 296 297 293 289 290 292 290 292 292 289 288 289 291 291 290 290 288 287 287 286 286 286 287 287 286 286 286 286 285 286 287 287 288 287 287 287 288
304 304 303 301 298 296 297 312 306 308 303 306 305 299 296 295 296 300 291 290 290 293 291 290 289 289 288 289 289 289 290 289 288 289 288 288 288 287 287 287 287 286 286 286 287 286 286 285 287 287 288 287 287 287
303 301 300 298 298 294 308 306 308 306 305 304 300 294 294 294 297 294 287 288 290 292 289 289 289 287 287 287 285 285 287 289 288 287 288 288 286 286 287 287 287 287 287 286 286 286 287 287 285 287 287 286 286 286
294 294 297 292 302 299 302 303 304 304 300 304 300 297 296 298 291 289 286 287 289 290 291 290 288 287 285 284 286 286 288 289 288 286 286 288 286 287 287 287 287 287 287 286 286 286 286 287 287 287 286 286 285 285
291 301 296 303 304 303 303 301 301 302 303 300 298 299 299 293 287 285 286 288 289 290 291 288 287 286 285 287 286 287 287 289 289 286 286 288 287 286 285 284 284 285 288 287 286 285 286 286 286 286 285 285 284 284
294 300 299 299 299 301 299 299 302 301 299 298 299 297 294 286 283 285 290 291 290 291 292 292 290 288 286 287 288 289 289 289 288 288 288 289 289 289 288 285 284 286 288 288 287 287 286 286 285 285 285 285 285 285
296 294 292 292 291 292 292 291 290 290 291 293 294 288 287 286 285 290 291 292 290 288 288 289 290 290 290 289 288 288 288 289 289 289 289 289 289 289 288 289 289 284 287 289 288 288 287 286 285 285 284 284 284 285
292 294 293 288 289 288 286 286 287 290 292 293 289 286 286 289 292 291 291 288 290 289 287 286 287 288 288 288 289 289 289 289 286 284 283 284 285 287 289 288 288 289 289 288 285 284 286 285 285 284 284 284 284 285
290 294 289 287 285 283 286 289 289 292 293 291 291 290 289 289 289 291 289 289 288 288 288 288 288 288 287 287 286 287 289 289 288 286 284 284 285 287 288 288 288 288 288 287 287 286 284 285 285 285 284 283 283 283
295 293 288 287 285 287 289 291 291 290 290 289 290 288 286 286 287 288 289 289 289 288 288 287 287 288 288 287 287 286 286 288 289 289 288 288 288 288 288 288 288 288 287 286 285 285 284 283 283 282 282 282 282 282
293 290 288 285 286 291 292 290 288 287 287 286 285 287 287 286 284 287 289 289 289 288 285 288 288 287 288 288 288 288 284 289 289 289 288 288 288 288 288 287 287 287 286 284 284 284 283 282 282 282 282 282 282 282
290 290 290 289 289 289 291 291 289 288 289 288 289 290 289 288 284 288 290 290 290 289 289 289 289 289 289 289 289 288 287 289 285 282 283 283 282 284 286 286 286 285 284 284 284 284 283 282 282 282 282 281 281 281
Wind_Speed
11 13 12 13 14 15 16 16 17 18 18 19 18 18 18 15 14 7 4 2 3 3 10 6 5 5 3 2 2 3 2 3 2 2 2 3 3 3 3 1 2 2 2 2 2 2 2 2 4 1 4 3 3 2
13 13 13 12 13 15 15 15 16 17 17 18 18 18 17 15 12 7 3 1 3 5 7 3 12 16 15 11 1 2 3 2 2 3 2 2 3 3 2 2 2 3 3 1 4 1 3 4 6 3 2 1 3 4
14 14 13 12 13 14 14 15 15 17 17 18 18 18 16 15 11 6 4 4 3 4 7 5 7 4 10 18 12 5 3 2 4 2 3 2 4 4 4 4 3 4 4 3 3 2 3 3 3 2 5 9 9 9
15 15 14 13 12 13 14 15 15 17 17 17 18 17 16 14 11 7 4 2 3 4 5 7 4 8 5 9 16 17 1 3 3 1 2 3 3 3 1 1 4 1 8 4 3 2 6 5 5 6 10 12 13 13
16 15 15 13 13 12 14 15 15 17 18 17 17 17 15 14 13 10 7 5 7 4 4 8 14 6 6 9 15 16 12 6 1 1 3 2 3 3 1 1 4 6 5 5 3 7 2 4 4 6 9 11 10 12
16 15 15 13 12 12 14 16 16 17 18 18 17 18 16 13 14 5 3 3 5 5 4 6 5 5 2 3 8 10 8 5 3 2 1 2 4 3 2 3 2 6 6 4 4 6 9 11 10 8 12 13 13 13
16 16 15 13 13 13 14 16 17 18 18 18 18 18 16 10 4 5 4 3 4 3 4 6 6 3 1 3 3 4 6 3 2 2 2 3 2 4 3 5 4 7 5 5 7 14 8 5 8 11 14 15 15 13
17 15 14 13 13 12 14 15 18 18 18 18 19 19 17 14 11 8 5 13 10 4 3 4 6 4 1 2 3 1 4 3 3 3 2 4 5 4 6 0 2 2 5 5 2 3 10 15 13 12 11 10 12 11
17 14 13 13 12 11 12 15 18 18 18 17 18 21 6 3 4 1 7 8 5 2 3 3 4 2 2 2 2 2 1 4 2 3 3 2 3 6 1 3 1 4 3 9 11 14 13 14 13 12 11 11 11 9
15 13 13 12 12 11 13 15 18 17 19 16 6 3 3 3 3 9 3 3 4 5 5 5 3 5 2 0 2 2 1 3 4 2 4 2 2 4 4 3 2 4 10 13 15 11 11 13 13 13 13 11 10 6
15 13 13 12 11 12 13 15 17 17 9 1 2 3 5 6 4 4 3 5 5 5 6 6 10 10 2 4 1 3 2 3 4 4 4 4 3 3 5 9 9 11 13 15 17 14 13 13 13 12 10 10 9 5
14 13 12 12 11 12 15 14 15 7 2 2 5 6 4 3 4 4 5 3 6 6 6 5 5 7 3 2 5 4 2 3 4 7 4 3 4 9 10 12 13 15 17 18 15 16 12 11 9 9 10 8 6 7
14 14 15 11 12 13 13 13 14 14 10 3 3 4 3 2 4 6 8 5 4 4 4 4 3 2 3 3 3 4 6 3 7 3 2 2 9 10 11 12 14 15 15 16 15 12 11 10 9 7 8 7 6 6
14 13 12 14 13 11 12 14 14 11 2 3 4 6 6 5 7 6 4 3 3 1 3 2 2 2 1 3 1 3 2 4 4 4 3 3 9 11 11 11 13 14 14 13 12 9 9 8 8 7 6 5 4 4
14 15 16 13 11 11 11 14 14 3 2 4 4 6 8 6 5 4 4 4 2 0 2 2 3 1 1 3 1 3 5 1 4 3 3 5 9 10 10 10 11 11 10 9 8 7 5 4 4 4 3 3 2 3
13 13 12 12 12 10 11 9 4 3 3 4 6 6 6 6 4 3 4 4 3 2 2 2 3 3 2 1 3 3 4 4 5 3 5 8 9 9 9 9 10 9 7 7 5 5 5 4 4 3 1 2 2 4
18 6 10 15 17 13 10 5 3 5 5 5 6 6 7 8 7 4 3 4 6 4 3 2 4 2 3 2 2 4 3 3 5 9 7 8 10 9 8 8 8 7 6 5 5 5 4 3 1 1 3 5 5 5
6 6 15 6 13 6 4 3 4 4 8 7 5 2 2 2 4 2 5 5 4 2 1 3 2 3 3 2 2 2 3 5 7 8 7 7 8 7 6 5 5 5 6 6 5 4 2 0 3 3 4 5 6 7
11 11 8 15 10 3 5 6 4 5 9 4 4 2 2 2 3 4 5 4 2 4 3 4 5 3 2 2 4 7 5 5 7 5 5 6 6 6 6 5 5 6 6 5 3 2 3 4 5 4 4 5 6 5
15 11 9 20 14 3 5 4 4 5 5 3 3 4 2 2 2 4 7 7 5 4 6 6 3 3 3 5 6 7 6 6 7 6 5 4 2 5 5 5 5 6 5 5 4 3 4 5 4 3 4 4 5 7
10 7 11 13 5 5 4 3 5 5 3 3 5 3 3 1 4 6 5 6 6 5 4 4 3 5 8 9 7 6 5 4 4 2 3 4 4 6 6 5 5 5 4 3 4 4 4 6 6 5 5 6 7 9
5 12 4 4 5 5 6 6 5 1 4 5 5 2 2 2 4 3 2 7 5 4 2 3 5 6 8 8 7 7 6 8 7 7 10 9 6 5 5 4 4 4 4 4 5 6 7 6 6 5 6 7 9 9
10 4 4 5 6 6 8 5 6 4 1 6 4 4 4 3 1 2 5 4 3 3 3 6 7 10 9 8 9 9 7 8 6 6 6 6 6 5 5 5 4 4 4 5 6 7 6 6 4 6 8 9 10 10
2 5 6 8 9 5 3 6 4 4 2 3 4 5 3 3 2 4 5 3 2 2 6 7 7 8 7 8 6 6 6 6 6 6 4 4 5 5 4 4 3 4 5 5 6 6 4 6 8 9 10 11 11 11
3 7 6 7 5 5 6 5 5 4 7 4 6 5 5 4 3 4 3 2 2 3 4 5 5 5 6 5 5 5 4 4 5 5 5 4 4 3 1 2 3 4 4 5 6 6 7 8 9 10 12 12 14 15
7 4 3 1 1 1 3 3 3 4 4 4 5 4 2 4 5 4 3 1 2 2 2 4 5 6 5 5 5 5 4 4 4 5 4 3 3 3 3 4 5 5 5 5 6 9 10 11 11 14 13 14 11 14
3 3 3 3 3 3 4 4 4 5 5 4 3 4 3 5 4 3 1 2 2 2 2 3 4 6 6 5 5 4 4 4 5 5 4 2 2 2 3 5 7 6 6 7 8 9 11 12 12 13 14 13 13 12
5 7 5 5 5 6 4 5 6 5 4 4 2 5 5 4 3 2 2 2 4 4 6 6 7 7 6 6 5 5 4 4 4 3 1 2 2 3 3 3 4 5 7 7 8 9 10 11 13 13 14 13 12 12
3 1 4 9 6 6 7 7 5 3 4 2 3 4 4 3 2 3 4 4 4 6 7 7 6 6 6 5 4 3 3 1 3 6 7 6 5 3 2 4 6 6 6 7 5 6 10 10 11 11 13 11 11 11
3 2 5 7 7 7 6 5 5 4 4 5 5 9 8 5 5 4 5 5 6 7 6 6 4 4 4 3 4 4 3 2 2 4 6 7 6 5 5 6 6 6 6 8 9 11 7 9 9 9 10 10 9 10
4 4 6 6 6 7 9 9 10 11 12 12 11 11 9 5 4 6 6 5 6 6 6 5 4 3 3 2 2 2 3 3 4 5 5 4 4 5 5 5 6 6 7 9 10 10 11 11 10 11 12 13 14 12
4 5 7 7 8 7 7 7 9 11 11 11 11 10 9 6 5 3 2 1 4 5 4 3 3 3 3 3 3 4 3 3 4 5 6 4 4 5 5 5 6 6 7 8 8 9 11 12 11 12 12 14 15 15
15 15 13 10 5 5 3 4 4 5 3 3 3 2 3 3 4 3 2 2 1 4 4 4 3 4 5 5 4 4 2 4 5 4 3 3 4 4 5 6 6 6 8 8 9 10 11 14 12 14 14 15 15 15
Wind_Direction
301 308 308 311 315 318 321 327 330 331 333 333 335 337 335 340 345 1 302 280 319 290 280 252 262 236 234 227 260 47 226 181 156 148 186 171 219 192 236 219 229 242 226 200 157 226 186 19 272 323 14 316 313 28
294 301 305 306 310 314 317 324 328 329 330 331 330 332 332 335 341 355 291 346 330 241 272 282 259 259 254 249 354 268 316 236 184 121 189 144 192 190 218 247 186 225 245 306 230 347 344 300 274 306 256 299 31 43
293 293 299 300 303 308 312 321 326 327 328 325 324 326 327 327 335 339 294 308 264 274 276 273 248 239 223 228 213 229 215 226 184 314 138 126 231 176 200 217 188 205 176 232 240 157 288 41 78 71 94 100 80 71
287 286 293 294 299 303 313 319 325 325 324 320 319 320 319 318 321 315 274 241 280 285 284 282 294 275 212 182 194 214 330 104 94 205 150 173 227 212 242 28 242 104 161 191 238 192 139 106 94 107 108 101 85 69
281 281 287 287 295 301 309 316 323 325 319 316 314 315 314 317 318 301 255 239 236 268 293 289 304 261 249 219 212 200 209 223 272 221 207 212 123 182 129 238 229 186 173 194 212 165 200 91 74 133 110 91 89 90
276 275 282 281 284 293 305 314 318 320 317 313 310 308 308 315 330 299 250 168 208 200 279 290 319 280 332 167 190 190 193 186 230 224 35 49 29 309 244 238 178 187 195 184 149 147 122 117 92 94 93 89 85 82
272 273 272 277 279 289 299 311 317 317 312 309 303 300 300 303 299 255 307 65 166 194 262 289 283 247 303 124 108 126 156 143 170 143 146 146 81 353 238 246 158 190 183 178 144 131 129 169 111 100 96 95 89 84
268 266 266 273 276 285 299 310 314 311 310 305 299 296 296 290 273 271 247 231 194 246 250 274 274 284 184 170 137 138 133 160 196 152 179 201 129 179 251 309 297 212 136 89 152 151 111 120 111 99 101 100 90 83
260 258 265 270 272 282 300 311 311 308 308 299 299 298 289 190 216 308 38 130 181 304 273 230 274 310 352 84 89 138 185 167 106 185 205 189 134 217 197 306 324 149 178 126 107 108 116 108 101 90 81 69 76 74
249 257 261 265 269 279 296 308 310 306 306 301 294 266 247 191 286 167 217 160 164 207 229 250 254 259 296 144 119 164 196 165 187 139 133 191 187 85 30 26 358 104 125 137 126 121 113 98 87 79 76 77 81 70
250 252 255 261 264 277 294 306 306 315 297 277 272 260 334 314 201 217 221 209 159 221 206 227 226 239 204 247 267 213 175 187 210 158 206 182 213 134 92 79 81 91 92 88 89 87 95 102 102 98 93 96 84 81
244 248 248 251 261 278 293 298 298 301 306 309 288 291 277 245 213 231 211 169 211 236 187 202 213 203 218 204 216 171 212 195 225 143 173 199 105 121 101 94 85 86 87 85 82 87 84 88 106 116 127 111 125 91
240 240 248 241 257 279 290 286 290 290 288 271 235 252 218 207 213 213 199 206 216 209 189 194 190 178 177 225 207 196 212 202 133 181 200 57 123 120 112 106 97 91 89 90 86 85 96 96 78 94 104 106 97 83
236 240 234 249 258 272 279 278 283 294 220 254 241 277 218 207 231 206 227 220 224 206 171 202 143 190 122 176 203 217 80 168 187 194 206 98 123 117 114 109 107 102 99 95 92 87 79 81 78 82 102 89 89 86
238 235 240 252 259 253 261 266 274 234 233 250 228 239 231 249 278 276 282 269 237 303 192 180 125 186 121 168 174 130 185 194 9 34 51 109 110 111 111 111 110 107 107 100 100 99 105 118 123 127 121 99 47 1
233 246 251 244 244 237 255 271 237 182 243 241 232 259 253 273 284 312 309 279 19 283 178 225 154 166 170 196 170 173 173 164 152 110 106 115 109 103 103 103 105 109 116 119 136 147 162 124 94 93 77 24 11 334
219 233 197 212 210 217 238 239 165 216 247 237 238 236 260 271 283 314 339 333 334 268 203 223 187 86 122 144 117 2 10 45 117 105 106 108 118 122 116 116 125 133 138 155 146 133 114 115 141 256 323 346 310 312
214 210 234 264 176 182 203 214 229 237 243 243 246 293 141 9 297 323 344 334 295 338 26 68 61 65 45 93 109 100 84 74 81 87 90 100 114 124 130 126 135 148 155 145 126 118 119 235 286 304 311 332 320 311
204 219 205 186 184 189 179 196 219 253 237 249 230 145 110 123 79 8 337 334 357 27 75 45 57 50 56 78 111 107 102 98 103 86 84 86 100 118 137 145 139 131 119 106 89 31 339 303 297 307 315 315 316 317
207 206 222 185 201 226 218 197 193 249 250 209 146 132 97 69 48 15 12 10 26 47 50 43 36 349 18 71 83 86 84 104 110 117 123 133 139 121 119 117 103 108 101 89 79 353 340 325 326 301 319 321 313 318
197 208 189 180 200 254 274 211 215 232 237 166 127 121 106 80 55 21 7 357 55 31 66 59 70 60 64 69 73 87 77 87 103 106 128 117 106 115 108 103 96 85 86 52 10 2 331 331 327 318 312 318 320 317
133 148 120 181 211 230 251 223 257 200 212 144 132 110 94 78 56 19 357 43 58 13 31 92 83 86 75 62 62 60 85 88 82 83 83 113 123 118 108 98 97 79 51 22 354 337 327 323 324 304 305 316 310 314
145 160 164 174 213 223 251 179 217 158 142 159 121 105 70 99 119 205 77 57 67 13 67 80 78 84 88 83 77 61 59 79 77 79 89 89 92 94 97 84 58 27 354 353 342 325 321 324 306 313 315 312 316 315
152 187 199 199 201 259 219 202 192 116 194 195 87 96 135 123 118 72 77 67 26 79 95 107 105 96 73 64 65 62 54 82 90 80 66 93 99 86 76 71 40 6 347 332 323 322 321 327 321 321 321 318 317 318
144 236 188 220 174 218 229 163 119 160 210 155 131 133 135 152 95 71 84 104 114 111 108 90 82 94 106 98 83 74 37 61 79 88 57 71 99 132 100 29 5 0 348 331 340 331 324 323 323 323 321 317 321 322
221 206 204 262 194 289 9 122 112 135 119 88 73 93 90 79 73 71 88 147 87 87 116 134 129 108 92 101 110 94 75 63 72 83 89 83 57 28 16 354 348 1 3 330 321 322 322 324 324 324 320 320 315 313
264 89 77 24 333 332 47 16 26 46 58 66 103 120 117 75 77 78 118 31 90 60 58 86 106 111 113 109 99 82 79 56 52 68 96 80 52 29 350 347 343 347 334 321 318 319 321 323 325 325 323 321 323 325
33 7 53 24 58 23 46 40 34 33 38 351 39 44 68 63 98 123 93 77 97 91 80 69 80 96 100 93 94 102 90 94 94 91 163 236 256 288 278 304 310 309 301 320 326 320 325 325 324 323 322 322 322 325
75 83 96 65 66 53 33 18 11 14 341 338 89 88 91 64 61 104 97 107 118 104 97 104 91 97 97 95 87 78 101 123 345 7 356 348 348 19 357 319 322 327 326 322 321 310 329 326 321 323 320 320 321 323
82 38 93 50 51 40 16 1 24 36 48 78 93 102 90 67 40 70 103 109 102 97 97 100 109 116 113 105 97 89 64 45 38 357 337 336 344 342 331 331 334 335 332 325 329 328 323 321 325 328 331 330 329 335
91 82 75 68 78 86 83 79 73 68 69 77 82 93 98 114 81 45 60 79 104 112 117 114 100 80 101 111 60 24 48 71 12 355 348 328 333 342 348 346 339 331 334 334 334 333 336 333 334 334 333 335 337 333
37 85 121 107 120 129 107 69 67 79 81 85 91 97 101 94 81 75 50 105 132 113 88 95 101 95 86 90 89 79 49 24 6 352 356 16 24 2 349 345 345 342 340 341 342 342 343 342 337 338 334 334 334 336
94 100 110 108 121 132 141 114 98 105 83 91 80 78 65 67 107 109 94 359 52 118 123 109 100 103 107 100 87 91 66 53 72 69 44 37 30 1 346 353 350 346 342 339 339 342 345 342 341 341 339 338 339 340